[[{"header":{"parameterUnit":"m.s-1","parameterCategory":1,"la1":30.2991,"la2":30.254,"lo1":-89.0895,"lo2":-89.0444,"dy":0.0017,"dx":0.0017,"nx":28,"ny":28,"refTime":"2023-11-06T03:00:00:Z","depth":0,"parameterNumber":2,"parameterNumberName":"U-component_of_WINDS"},"data":[0,0,0,0,0,0,0,0,0,0,0,0,0,0,0,0,0,0,0,0,0,0,0,0,0,0,0,0,0,0,0,0,0,0,0,0,0,0,0,0,0,0,0,0,0,0,0,0,0,0,0,0,0,0,0,0,0,0,-0.1216,-0.1215,0,-0.1158,-0.1158,-0.1157,-0.1137,-0.1138,-0.1138,-0.1138,-0.1076,-0.1074,-0.1073,0,0,0,0,0,0,0,0,0,0,0,0,0,-0.1307,-0.1305,-0.1216,-0.1215,-0.1215,-0.1159,-0.1158,-0.1157,-0.1137,-0.1138,-0.1138,-0.1138,-0.1077,-0.1075,-0.1072,0,0,0,0,0,0,0,0,0,0,0,0,0,-0.126,-0.1305,-0.1216,-0.1198,-0.1196,-0.1159,-0.1158,-0.1157,-0.1137,-0.1138,-0.1138,-0.1138,-0.1078,-0.1075,-0.1072,-0.1048,0,0,-0.1064,-0.1062,0,0,0,0,0,0,0,0,-0.1263,-0.1257,-0.1202,-0.1199,-0.1197,-0.1156,-0.1167,-0.112,-0.1137,-0.116,-0.1138,-0.1139,-0.1102,-0.1097,-0.1086,-0.1045,-0.1042,-0.1063,-0.1062,-0.106,-0.106,0,0,0,0,0,0,0,-0.1266,-0.1259,-0.1193,-0.1201,-0.1198,-0.1192,-0.1186,-0.1158,-0.1129,-0.1158,-0.1156,-0.115,-0.1101,-0.1088,-0.1084,-0.1041,-0.1063,-0.1061,-0.1059,-0.1058,-0.0977,-0.0976,0,0,0,0,0,0,-0.1273,-0.1262,-0.1195,-0.1191,-0.1231,-0.119,-0.1183,-0.1168,-0.113,-0.1124,-0.1149,-0.1149,-0.1093,-0.1087,-0.1082,-0.105,-0.106,-0.1058,-0.1056,-0.0977,-0.0977,-0.0976,0,0,0,0,0,0,-0.1275,-0.1267,-0.1197,-0.1226,-0.1217,-0.1188,-0.1172,-0.1167,-0.1155,-0.1124,-0.1118,-0.1142,-0.1093,-0.1086,-0.1056,-0.1048,-0.1057,-0.1054,-0.0978,-0.0977,-0.0977,-0.0988,0,0,0,0,0,0,-0.1277,-0.1268,-0.1259,-0.1226,-0.1216,-0.1174,-0.1171,-0.1166,-0.115,-0.1149,-0.1115,-0.111,-0.1093,-0.1061,-0.1054,-0.1044,-0.1052,-0.0979,-0.0978,-0.0977,-0.0988,-0.0987,-0.0987,0,0,0,0,0,-0.1281,-0.1263,-0.1258,-0.125,-0.1204,-0.1173,-0.1167,-0.1149,-0.115,-0.114,-0.112,-0.1111,-0.105,-0.1058,-0.105,-0.1039,-0.0979,-0.0978,-0.0977,-0.0988,-0.0987,-0.0987,0,0,0,0,0,0,-0.1295,-0.1259,-0.1253,-0.1225,-0.1202,-0.117,-0.1157,-0.1148,-0.1125,-0.1124,-0.1102,-0.1094,-0.1066,-0.105,-0.1059,-0.1014,-0.1014,-0.1011,-0.1025,-0.1024,-0.1024,-0.1028,-0.1049,0,0,0,0,0,-0.1295,-0.1274,-0.1243,-0.1222,-0.1211,-0.1186,-0.1172,-0.116,-0.1135,-0.1125,-0.1103,-0.1079,-0.1054,-0.1039,-0.1014,-0.0986,-0.0978,-0.0974,-0.0974,-0.0974,-0.0971,-0.0955,-0.0953,-0.0973,-0.0973,-0.0973,0,0,-0.1294,-0.1272,-0.126,-0.1224,-0.1205,-0.1183,-0.1178,-0.1155,-0.1138,-0.1121,-0.1093,-0.1076,-0.1047,-0.1018,-0.1004,-0.1003,-0.0964,-0.0972,-0.0972,-0.097,-0.0953,-0.0952,-0.095,-0.0972,-0.0972,-0.0972,0,0,-0.1282,-0.1264,-0.1243,-0.1225,-0.1197,-0.118,-0.1176,-0.1144,-0.1133,-0.1104,-0.1091,-0.107,-0.1028,-0.1008,-0.0993,-0.0974,-0.0964,-0.0966,-0.0964,-0.0948,-0.0946,-0.0945,-0.0937,-0.0935,-0.0964,-0.0964,-0.0964,0,-0.1285,-0.1252,-0.1234,-0.1211,-0.1196,-0.1181,-0.1159,-0.1142,-0.1107,-0.1096,-0.1096,-0.1044,-0.1023,-0.0989,-0.0985,-0.0973,-0.0966,-0.097,-0.0948,-0.0946,-0.0945,-0.0937,-0.0935,-0.0965,-0.0965,-0.0964,-0.0964,0,-0.1256,-0.1234,-0.1221,-0.1188,-0.1171,-0.1149,-0.1127,-0.1112,-0.1101,-0.1085,-0.1055,-0.103,-0.1001,-0.0992,-0.0981,-0.0956,-0.0956,-0.0953,-0.0952,-0.0943,-0.0936,-0.0933,-0.0965,-0.0965,-0.0965,-0.0965,0,0,-0.1251,-0.1209,-0.1205,-0.119,-0.1158,-0.1139,-0.1117,-0.1089,-0.1076,-0.1052,-0.1032,-0.0998,-0.0994,-0.0976,-0.0963,-0.0949,-0.0935,-0.0947,-0.0946,-0.0945,-0.0906,-0.0909,-0.0906,-0.0929,-0.0929,-0.0928,-0.0908,0,-0.1235,-0.1195,-0.1178,-0.1145,-0.1124,-0.1109,-0.1089,-0.1067,-0.1051,-0.103,-0.1012,-0.0988,-0.0985,-0.0974,-0.096,-0.094,-0.0927,-0.0941,-0.091,-0.0909,-0.0917,-0.0902,-0.0905,-0.0888,-0.0905,-0.0905,-0.0905,0,-0.121,-0.1187,-0.1153,-0.1123,-0.1113,-0.1096,-0.1069,-0.1049,-0.1024,-0.1013,-0.0994,-0.0981,-0.0956,-0.0959,-0.0924,-0.0934,-0.092,-0.0908,-0.0907,-0.0903,-0.0906,-0.0897,-0.0882,-0.0879,-0.09,-0.09,-0.0901,0,-0.1209,-0.117,-0.1144,-0.1132,-0.1097,-0.1085,-0.1069,-0.1044,-0.1029,-0.1005,-0.0994,-0.0967,-0.0952,-0.0932,-0.0912,-0.0916,-0.0879,-0.088,-0.0869,-0.0869,-0.0861,-0.0862,-0.0843,-0.0853,-0.0853,-0.0853,-0.0853,0,-0.1192,-0.1172,-0.1143,-0.1127,-0.1104,-0.1084,-0.1061,-0.1044,-0.1022,-0.1002,-0.0988,-0.0969,-0.0945,-0.0923,-0.0908,-0.0881,-0.0874,-0.0865,-0.0861,-0.0866,-0.0867,-0.0856,-0.0856,-0.0853,-0.0853,-0.0853,-0.0853,0,-0.1187,-0.1168,-0.1138,-0.1108,-0.11,-0.1084,-0.1057,-0.1041,-0.1024,-0.0999,-0.0992,-0.0966,-0.094,-0.0919,-0.0884,-0.0873,-0.0845,-0.0841,-0.0854,-0.0852,-0.0843,-0.0844,-0.0815,-0.081,-0.0825,-0.0825,-0.0824,0,-0.1178,-0.1162,-0.1129,-0.1116,-0.1101,-0.1078,-0.1062,-0.1042,-0.1026,-0.0996,-0.0983,-0.0956,-0.0933,-0.0891,-0.0869,-0.0842,-0.0837,-0.0829,-0.0833,-0.0838,-0.0836,-0.0837,-0.0836,-0.0828,-0.0828,-0.0828,-0.0828,0,-0.1163,-0.1154,-0.1131,-0.1106,-0.1087,-0.1066,-0.1044,-0.1033,-0.1009,-0.0992,-0.0965,-0.0947,-0.0912,-0.0885,-0.0857,-0.084,-0.083,-0.0827,-0.0823,-0.0828,-0.0836,-0.0831,-0.0853,-0.0828,-0.0828,-0.0828,-0.0828,-0.0828,-0.1155,-0.114,-0.1115,-0.109,-0.1072,-0.1052,-0.1035,-0.1017,-0.0995,-0.0965,-0.0954,-0.0927,-0.0901,-0.0862,-0.0845,-0.0823,-0.0822,-0.0816,-0.0815,-0.0814,-0.0814,-0.084,-0.0818,-0.0818,-0.0818,-0.0818,-0.0818,0,-0.1138,-0.1122,-0.11,-0.107,-0.1051,-0.1044,-0.1019,-0.1003,-0.098,-0.0957,-0.0935,-0.0904,-0.0878,-0.0854,-0.0827,-0.0814,-0.0808,-0.0807,-0.0807,-0.0804,-0.0817,-0.0823,-0.0812,-0.0812,-0.0812,-0.0812,-0.0812,-0.0812,-0.1128,-0.1102,-0.109,-0.1054,-0.1038,-0.1011,-0.0998,-0.0979,-0.0961,-0.0928,-0.0906,-0.0891,-0.0867,-0.0838,-0.0814,-0.0807,-0.0797,-0.0797,-0.079,-0.0802,-0.0803,-0.0804,-0.0809,-0.0796,-0.0796,-0.0778,-0.0778,-0.0778]},{"header":{"parameterUnit":"m.s-1","parameterCategory":1,"la1":30.2991,"la2":30.254,"lo1":-89.0895,"lo2":-89.0444,"dy":0.0017,"dx":0.0017,"nx":28,"ny":28,"refTime":"2023-11-06T03:00:00:Z","depth":0,"parameterNumber":3,"parameterNumberName":"V-component_of_WINDS"},"data":[0,0,0,0,0,0,0,0,0,0,0,0,0,0,0,0,0,0,0,0,0,0,0,0,0,0,0,0,0,0,0,0,0,0,0,0,0,0,0,0,0,0,0,0,0,0,0,0,0,0,0,0,0,0,0,0,0,0,2.5019,2.5019,0,2.5007,2.5007,2.5007,2.5044,2.5045,2.5046,2.5047,2.5028,2.5027,2.5025,0,0,0,0,0,0,0,0,0,0,0,0,0,2.5068,2.5067,2.5019,2.5019,2.5019,2.5007,2.5007,2.5007,2.5044,2.5045,2.5046,2.5048,2.5029,2.5027,2.5025,0,0,0,0,0,0,0,0,0,0,0,0,0,2.5051,2.5067,2.5019,2.5036,2.5037,2.5007,2.5007,2.5007,2.5043,2.5045,2.5047,2.5048,2.503,2.5027,2.5025,2.4976,0,0,2.5018,2.5017,0,0,0,0,0,0,0,0,2.5052,2.5049,2.5034,2.5035,2.5036,2.5029,2.5018,2.4996,2.5043,2.5041,2.5047,2.5049,2.5027,2.5025,2.5019,2.4975,2.4974,2.5018,2.5016,2.5015,2.5014,0,0,0,0,0,0,0,2.5053,2.5049,2.5014,2.5033,2.5035,2.5042,2.5042,2.5014,2.5024,2.5041,2.5044,2.5042,2.5028,2.5021,2.5018,2.4974,2.5018,2.5016,2.5014,2.5013,2.489,2.4888,0,0,0,0,0,0,2.5053,2.505,2.5015,2.5014,2.5049,2.504,2.5039,2.5029,2.5025,2.5026,2.5041,2.5044,2.5024,2.5021,2.5018,2.496,2.5015,2.5013,2.5012,2.4892,2.489,2.4888,0,0,0,0,0,0,2.5054,2.5049,2.5015,2.5033,2.5029,2.5038,2.5026,2.5028,2.5021,2.5025,2.5026,2.5032,2.5025,2.5021,2.4987,2.496,2.5012,2.501,2.4894,2.4891,2.4889,2.4845,0,0,0,0,0,0,2.5055,2.5049,2.5032,2.5032,2.5028,2.4986,2.5024,2.5027,2.5018,2.5022,2.5017,2.5017,2.5026,2.499,2.4984,2.4958,2.5008,2.4896,2.4893,2.489,2.4848,2.4841,2.4834,0,0,0,0,0,2.5056,2.5019,2.5031,2.5026,2.5007,2.4984,2.4982,2.4995,2.5016,2.4998,2.5,2.5017,2.4964,2.4986,2.498,2.4952,2.4898,2.4894,2.489,2.4852,2.4842,2.4834,0,0,0,0,0,0,2.5012,2.5019,2.5033,2.4994,2.4989,2.4991,2.4968,2.4984,2.4971,2.4975,2.4989,2.4988,2.495,2.4948,2.4972,2.4905,2.4935,2.4929,2.4908,2.4899,2.4892,2.4892,2.5006,0,0,0,0,0,2.4999,2.4981,2.4987,2.4953,2.4949,2.4959,2.495,2.4961,2.4954,2.4951,2.4951,2.4943,2.4924,2.4912,2.4895,2.4849,2.4848,2.4827,2.482,2.4814,2.4808,2.4783,2.4774,2.4874,2.4874,2.4874,0,0,2.4969,2.497,2.4958,2.4944,2.4941,2.4921,2.4957,2.4934,2.4919,2.4947,2.4915,2.4915,2.4906,2.4866,2.4848,2.4863,2.4781,2.4808,2.4804,2.4801,2.4778,2.4769,2.476,2.4871,2.4872,2.4872,0,0,2.4905,2.4905,2.4876,2.4873,2.4869,2.4876,2.4869,2.4869,2.487,2.4839,2.486,2.4841,2.4809,2.4803,2.4795,2.473,2.4745,2.4724,2.4686,2.4661,2.4653,2.4647,2.4623,2.4614,2.4719,2.4719,2.4719,0,2.4867,2.4841,2.4858,2.4835,2.4828,2.4855,2.4825,2.4821,2.481,2.4804,2.4821,2.4782,2.4779,2.4737,2.4722,2.4715,2.4706,2.4724,2.4654,2.4647,2.4641,2.4618,2.4609,2.4716,2.4716,2.4717,2.4717,0,2.4795,2.4776,2.4753,2.4745,2.4735,2.4708,2.4721,2.4708,2.472,2.4725,2.4692,2.4689,2.4672,2.4664,2.4674,2.4623,2.4633,2.4652,2.4681,2.4628,2.4607,2.4598,2.4712,2.4713,2.4714,2.4715,0,0,2.4701,2.4705,2.4696,2.4693,2.4691,2.4676,2.465,2.4636,2.4625,2.4617,2.4595,2.4568,2.4586,2.4577,2.4587,2.4566,2.4514,2.4588,2.4588,2.4573,2.4457,2.4442,2.4432,2.4525,2.4523,2.4522,2.4458,0,2.4637,2.4596,2.4611,2.4568,2.455,2.4576,2.4554,2.4549,2.4553,2.4537,2.4541,2.4522,2.4547,2.4542,2.4523,2.4524,2.4491,2.4529,2.4502,2.4501,2.4503,2.4421,2.4405,2.4344,2.445,2.4448,2.4447,0,2.4557,2.4549,2.4504,2.4506,2.4499,2.4479,2.4468,2.4453,2.4448,2.4452,2.4444,2.4458,2.4432,2.4463,2.4425,2.4452,2.4442,2.4441,2.4439,2.4436,2.447,2.4415,2.4325,2.4316,2.4434,2.4436,2.4436,0,2.4492,2.4469,2.444,2.4436,2.4438,2.4424,2.4423,2.4421,2.4411,2.4401,2.4395,2.438,2.4372,2.436,2.437,2.4392,2.433,2.4363,2.4332,2.4331,2.4316,2.4317,2.4223,2.4312,2.4312,2.4312,2.4312,0,2.4419,2.439,2.4411,2.4392,2.4361,2.4379,2.4346,2.4349,2.4347,2.4328,2.4349,2.4331,2.4346,2.4328,2.4336,2.4303,2.4299,2.4301,2.4303,2.4298,2.4298,2.4291,2.4295,2.431,2.431,2.4311,2.4311,0,2.434,2.4353,2.4322,2.4328,2.4329,2.4305,2.4309,2.4291,2.4297,2.4273,2.4269,2.4278,2.4258,2.4268,2.4247,2.4252,2.421,2.4218,2.4212,2.4214,2.4182,2.4184,2.4079,2.4066,2.4164,2.4163,2.4162,0,2.4292,2.4271,2.4275,2.4265,2.4264,2.4248,2.4239,2.4256,2.4246,2.424,2.4222,2.4206,2.4193,2.416,2.4164,2.4148,2.4155,2.4119,2.4152,2.4148,2.4153,2.4154,2.4152,2.4112,2.4111,2.411,2.4109,0,2.4205,2.4213,2.4201,2.4191,2.4181,2.4173,2.4168,2.4158,2.4175,2.4162,2.4144,2.4134,2.4114,2.4096,2.4083,2.4081,2.4097,2.4099,2.4091,2.4085,2.4082,2.4083,2.4193,2.4101,2.4102,2.4102,2.4103,2.4103,2.4139,2.4122,2.4122,2.4108,2.4106,2.4101,2.4085,2.409,2.4076,2.4063,2.4073,2.4051,2.4047,2.4031,2.4027,2.4009,2.4022,2.4011,2.4008,2.4004,2.4,2.4087,2.4006,2.4006,2.4007,2.4007,2.4007,0,2.4052,2.4055,2.4042,2.4034,2.4023,2.4043,2.4037,2.4026,2.4007,2.4003,2.3991,2.397,2.3953,2.3956,2.3941,2.3926,2.3933,2.3921,2.3921,2.3921,2.3989,2.3997,2.3916,2.3916,2.3916,2.3916,2.3916,2.3916,2.4006,2.3978,2.3986,2.3957,2.3959,2.3939,2.3935,2.3929,2.3926,2.3903,2.389,2.3893,2.3891,2.3876,2.3861,2.3862,2.3855,2.384,2.3844,2.3907,2.3916,2.3924,2.3932,2.3839,2.3839,2.3777,2.3777,2.3776]}]]